Powrót do katalogu

ATLAS 5 CENTAUR DEB

LostHEO
NORAD 52044·DEBRIS·🇺🇸 United States

Wystrzelony Oct 17, 2018 z Cape Canaveral Space Force Station

Loading…

Następne Przeloty (najbliższe 24 godziny)

TLE

NieaktualneSource: Space-Track

Epoka: Aug 3, 2026, 22:45 UTC

1 52044U 18079GN  26215.94823708 -.00000088  00000-0  00000-0 0  9994
2 52044  13.0008  35.7187 4296189 325.7497  12.7148  1.90889642 34788

Śledź ATLAS 5 CENTAUR DEB w czasie rzeczywistym z AllMySat

Download on the App Store